Location: Corralito
(10.2667°N, 66.9500°W)
Time: 06:27:05
(UTC+00:00)

FENGYUN 1C DEB - Visible Passes

Search period start: 16 July 2024 00:00
Search period end: 26 July 2024 00:00
Orbit: 815 x 916 km, 98.8° (Epoch: 15 July)

Date Brightness Start Highest point End Pass type
(mag) Time Alt. Az. Time Alt. Az. Time Alt. Az.
16 Jul ? 23:21:28 10° SSE 23:26:29 43° ENE 23:31:29 10° N visible
17 Jul ? 01:05:31 10° WSW 01:07:21 12° W 01:09:10 10° W visible
17 Jul ? 23:14:14 10° SE 23:19:01 35° ENE 23:23:50 10° N visible
18 Jul ? 00:56:58 10° SW 00:59:51 15° W 01:02:44 10° WNW visible
19 Jul ? 00:48:50 10° SW 00:52:22 18° W 00:55:57 10° WNW visible
20 Jul ? 00:40:51 10° SSW 00:44:54 22° W 00:48:58 10° NW visible
21 Jul ? 00:32:58 10° SSW 00:37:24 27° W 00:41:53 10° NW visible
22 Jul ? 00:25:11 10° SSW 00:29:55 33° W 00:34:41 10° NW visible
23 Jul ? 00:17:29 10° S 00:22:26 41° WSW 00:27:26 10° NNW visible
24 Jul ? 00:09:49 10° S 00:14:57 50° WSW 00:20:08 10° NNW visible
25 Jul ? 00:02:13 10° S 00:07:28 61° WSW 00:12:46 10° NNW visible
